{"data":{"norad_id":47851,"epoch":"2026-09-20T18:25:16.544640Z","epoch_age_seconds":61821,"freshness":"FRESH","line1":"1 47851U 21019A   26263.76755260 -.00000229  00000+0  00000+0 0  9997","line2":"2 47851  16.3217 301.1976 0014399  20.7321 100.7247  1.00268592 25095","mean_motion":1.00268592,"eccentricity":0.0014399,"inclination_deg":16.3217,"raan_deg":301.1976,"arg_perigee_deg":20.7321,"mean_anomaly_deg":100.7247,"bstar":0,"rev_number":2509,"period_min":1436.1426357717,"perigee_km":35726.775812294,"apogee_km":35848.204385213,"semimajor_km":42165.627098754,"source":"CELESTRAK","updated_at":"2026-09-21T09:00:07.607736Z"}}